EKRAN 2 DEB, 59986

Orbit data source: Space-Track

EKRAN 2 DEB, 59986 is space debris in GEO originally from a launch on Tue, 20 Sep 1977 UTC launched from the Tyuratam Missile And Space Complex (TTMTR). Debris objects in space refer to the collection of defunct objects orbiting the Earth. Examples of debris include non-operational satellites, rocket bodies, and fragments generated from explosions, collisions, or faulty payload assembly.

Not visible in the next 10 days
Identifier
59986, 1977-092M
Orbit
GEO
Country
Flag of CISCIS
Related business
Manufacturer
Unknown
Mission
Spacecraft
Bus & Motor
Unknown
Mass
Unknown
Launch date (UTC)
1977-09-20 (48 years ago)
Launch vehicle
Unknown
Launch site
Tyuratam Missile And Space Complex (TTMTR)
Object type
Payload
Rocket body
Debris
Shape & HBR
Unknown shape, 1.1 m
Radar Cross Section
RCS unknown

Expand to show TLE details & history
Last TLE update: 2 days ago

TLE from 2 days ago
0 EKRAN 2 DEB
1 59986U 77092M   25305.68565771  .00000145  00000-0  00000-0 0  9992
2 59986   4.3614 274.3558 0036514 107.3122 285.9953  1.00935026 44236
Epoch: 2025-11-01T16:27Z
TLE epoch observation values (Epoch: 2025-11-01T16:27:20.826Z)
Latitude
2.38916°
Longitude
19.09159°
Altitude
35,559.4 km
Speed
3.085 km/s
True Right ascension
20h 28m 33s
True Declination
2° 23' 12"
Sunlit
Object was in daylight at epoch
Visualization orbit readout
Latitude
Unknown
Longitude
Unknown
Altitude
Unknown
Speed
Unknown
Apparent Right ascension
Unknown
Apparent Declination
Unknown
Sunlit
N/A
Visualization observer readout
Local Sidereal Time
21:10:05
Azimuth
Unknown
Elevation
Unknown
Doppler factor
Unknown
Orbital elements
Apogee altitude
35,756.038 km
Perigee altitude
35,449.46 km
Semi-major axis
41,980.886 km
Eccentricity
0.00365
Inclination
4.3614°
RAAN
274.3558°
Arg. of periapsis
107.3122°
True anomaly
285.59258°
Mean anomaly
285.9953°
Eccentric anomaly
285.79399°
Mean motion
0.25233 °/min
Orbital period
1,426.71 mins
BSTAR
0
Loading maneuver chart data...
Computing Atmospheric mass density...
Loading historical data...
Loading historical data...
Loading historical data...
Loading historical data...
Loading historical data...
Loading historical data...
Loading historical data...

Documentation

Showing up to 5 results
|